TimeMDT,TemperatureF,Dew PointF,Humidity,Sea Level PressureIn,VisibilityMPH,Wind Direction,Wind SpeedMPH,Gust SpeedMPH,PrecipitationIn,Events,Conditions,WindDirDegrees,DateUTC
12:15 AM,32.5,15.6,50,30.12,10.0,ESE,4.6,-,N/A,,Clear,110,2014-05-09 06:15:00
12:35 AM,36.3,17.6,47,30.12,10.0,Calm,Calm,-,N/A,,Clear,0,2014-05-09 06:35:00
12:55 AM,28.6,13.6,54,30.11,10.0,North,6.9,-,N/A,,Clear,350,2014-05-09 06:55:00
1:15 AM,30.4,14.9,53,30.11,10.0,NNE,3.5,-,N/A,,Clear,20,2014-05-09 07:15:00
1:35 AM,28.8,14.9,56,30.11,10.0,NE,4.6,-,N/A,,Clear,40,2014-05-09 07:35:00
1:55 AM,29.5,15.8,57,30.11,10.0,NE,5.8,-,N/A,,Clear,50,2014-05-09 07:55:00
2:15 AM,32.0,17.4,55,30.10,10.0,ENE,3.5,-,N/A,,Clear,60,2014-05-09 08:15:00
2:35 AM,30.7,16.3,55,30.09,10.0,Calm,Calm,-,N/A,,Clear,0,2014-05-09 08:35:00
2:55 AM,27.0,14.4,59,30.09,10.0,NE,5.8,-,N/A,,Clear,50,2014-05-09 08:55:00
3:15 AM,27.0,14.5,60,30.10,10.0,East,4.6,-,N/A,,Clear,80,2014-05-09 09:15:00
3:35 AM,26.8,14.2,59,30.10,10.0,Calm,Calm,-,N/A,,Clear,0,2014-05-09 09:35:00
3:55 AM,25.5,14.0,62,30.10,10.0,South,3.5,-,N/A,,Clear,190,2014-05-09 09:55:00
4:15 AM,25.5,14.0,62,30.11,10.0,South,5.8,-,N/A,,Clear,190,2014-05-09 10:15:00
4:35 AM,27.9,16.0,61,30.11,10.0,SSE,3.5,-,N/A,,Clear,160,2014-05-09 10:35:00
4:55 AM,27.9,15.6,60,30.11,10.0,SSE,3.5,-,N/A,,Clear,150,2014-05-09 10:55:00
5:15 AM,24.6,12.6,60,30.12,10.0,Calm,Calm,-,N/A,,Clear,0,2014-05-09 11:15:00
5:35 AM,21.7,11.1,64,30.11,10.0,East,5.8,-,N/A,,Clear,100,2014-05-09 11:35:00
5:55 AM,21.6,10.9,64,30.11,10.0,Calm,Calm,-,N/A,,Clear,0,2014-05-09 11:55:00
6:15 AM,21.2,11.3,66,30.12,10.0,Calm,Calm,-,N/A,,Clear,0,2014-05-09 12:15:00
6:35 AM,23.9,13.1,63,30.12,10.0,Calm,Calm,-,N/A,,Clear,0,2014-05-09 12:35:00
6:55 AM,28.4,14.4,56,30.13,10.0,Calm,Calm,-,N/A,,Clear,0,2014-05-09 12:55:00
7:15 AM,32.0,15.8,51,30.13,10.0,Calm,Calm,-,N/A,,Clear,0,2014-05-09 13:15:00
7:35 AM,34.3,16.7,49,30.13,10.0,Calm,Calm,-,N/A,,Clear,0,2014-05-09 13:35:00
7:55 AM,38.1,18.1,45,30.13,10.0,Calm,Calm,-,N/A,,Clear,0,2014-05-09 13:55:00
8:15 AM,43.0,19.2,39,30.13,10.0,SSE,3.5,-,N/A,,Clear,160,2014-05-09 14:15:00
8:35 AM,46.8,19.4,34,30.14,10.0,South,5.8,-,N/A,,Clear,190,2014-05-09 14:35:00
8:55 AM,48.6,19.6,32,30.13,10.0,SSW,5.8,-,N/A,,Clear,210,2014-05-09 14:55:00
9:15 AM,50.9,21.4,31,30.13,10.0,SSW,8.1,-,N/A,,Clear,210,2014-05-09 15:15:00
9:35 AM,54.9,22.1,28,30.12,10.0,WSW,8.1,-,N/A,,Clear,240,2014-05-09 15:35:00
9:55 AM,57.6,23.0,26,30.12,10.0,West,8.1,16.1,N/A,,Clear,260,2014-05-09 15:55:00
10:15 AM,59.0,23.2,25,30.12,10.0,West,12.7,17.3,N/A,,Clear,260,2014-05-09 16:15:00
10:35 AM,60.8,23.9,24,30.11,10.0,West,16.1,23.0,N/A,,Clear,260,2014-05-09 16:35:00
10:55 AM,61.0,22.6,23,30.11,10.0,WSW,17.3,25.3,N/A,,Clear,250,2014-05-09 16:55:00
11:15 AM,61.7,23.0,23,30.11,10.0,West,17.3,23.0,N/A,,Clear,260,2014-05-09 17:15:00
11:35 AM,63.0,22.3,21,30.10,10.0,WSW,17.3,26.5,N/A,,Clear,250,2014-05-09 17:35:00
11:55 AM,64.0,21.0,19,30.10,10.0,WSW,21.9,27.6,N/A,,Clear,250,2014-05-09 17:55:00
12:15 PM,64.4,20.8,19,30.10,10.0,West,20.7,25.3,N/A,,Clear,270,2014-05-09 18:15:00
12:35 PM,64.8,20.3,18,30.08,10.0,West,15.0,26.5,N/A,,Clear,260,2014-05-09 18:35:00
12:55 PM,64.6,21.2,19,30.08,10.0,WSW,21.9,29.9,N/A,,Clear,250,2014-05-09 18:55:00
1:15 PM,65.1,20.8,18,30.07,10.0,West,25.3,29.9,N/A,,Clear,260,2014-05-09 19:15:00
1:35 PM,65.8,21.0,18,30.06,10.0,WSW,26.5,33.4,N/A,,Clear,250,2014-05-09 19:35:00
1:55 PM,67.3,20.3,17,30.05,10.0,WSW,26.5,33.4,N/A,,Clear,250,2014-05-09 19:55:00
2:15 PM,67.8,20.8,17,30.04,10.0,WSW,16.1,29.9,N/A,,Clear,250,2014-05-09 20:15:00
2:35 PM,68.9,20.1,16,30.02,10.0,WSW,13.8,21.9,N/A,,Clear,250,2014-05-09 20:35:00
2:55 PM,69.3,19.4,15,30.02,10.0,West,21.9,31.1,N/A,,Clear,260,2014-05-09 20:55:00
3:15 PM,70.0,19.6,15,30.01,10.0,West,21.9,32.2,N/A,,Clear,270,2014-05-09 21:15:00
3:35 PM,70.3,18.7,14,30.00,10.0,WSW,23.0,36.8,N/A,,Clear,240,2014-05-09 21:35:00
3:55 PM,71.2,18.3,13,29.99,10.0,West,25.3,36.8,N/A,,Clear,260,2014-05-09 21:55:00
4:15 PM,70.9,17.4,13,29.98,10.0,WSW,27.6,34.5,N/A,,Clear,250,2014-05-09 22:15:00
4:35 PM,71.2,17.4,13,29.98,10.0,WSW,20.7,29.9,N/A,,Clear,240,2014-05-09 22:35:00
4:55 PM,71.6,16.5,12,29.97,10.0,WSW,21.9,33.4,N/A,,Clear,250,2014-05-09 22:55:00
5:15 PM,71.1,16.2,12,29.96,10.0,WSW,17.3,26.5,N/A,,Clear,250,2014-05-09 23:15:00
5:35 PM,71.4,15.8,12,29.96,10.0,WSW,23.0,28.8,N/A,,Clear,250,2014-05-09 23:35:00
5:55 PM,71.4,16.3,12,29.96,10.0,West,20.7,28.8,N/A,,Clear,270,2014-05-09 23:55:00
6:15 PM,70.7,16.7,13,29.96,10.0,West,25.3,31.1,N/A,,Clear,260,2014-05-10 00:15:00
6:35 PM,69.8,17.2,13,29.96,10.0,West,23.0,28.8,N/A,,Clear,260,2014-05-10 00:35:00
6:55 PM,68.9,17.6,14,29.96,10.0,West,16.1,-,N/A,,Clear,260,2014-05-10 00:55:00
7:15 PM,67.6,17.6,15,29.96,10.0,West,16.1,25.3,N/A,,Clear,270,2014-05-10 01:15:00
7:35 PM,66.2,17.6,15,29.97,10.0,West,16.1,20.7,N/A,,Clear,280,2014-05-10 01:35:00
7:55 PM,63.9,17.2,17,29.98,10.0,West,9.2,-,N/A,,Clear,270,2014-05-10 01:55:00
8:15 PM,62.6,17.1,17,29.98,10.0,West,11.5,-,N/A,,Clear,280,2014-05-10 02:15:00
8:35 PM,60.1,16.7,18,29.98,10.0,West,11.5,-,N/A,,Clear,270,2014-05-10 02:35:00
8:55 PM,59.2,17.2,20,29.99,10.0,West,11.5,-,N/A,,Clear,270,2014-05-10 02:55:00
9:15 PM,57.6,17.2,21,29.99,10.0,West,10.4,-,N/A,,Clear,270,2014-05-10 03:15:00
9:35 PM,56.5,17.4,22,29.99,10.0,West,10.4,-,N/A,,Clear,260,2014-05-10 03:35:00
9:55 PM,54.3,17.4,23,30.00,10.0,West,10.4,-,N/A,,Clear,260,2014-05-10 03:55:00
10:15 PM,53.4,17.6,24,30.01,10.0,West,10.4,-,N/A,,Clear,270,2014-05-10 04:15:00
10:35 PM,55.0,18.0,23,30.01,10.0,South,3.5,-,N/A,,Clear,170,2014-05-10 04:35:00
10:55 PM,48.9,16.7,28,30.01,10.0,East,3.5,-,N/A,,Clear,100,2014-05-10 04:55:00
11:15 PM,49.3,16.9,28,30.01,10.0,South,3.5,-,N/A,,Clear,170,2014-05-10 05:15:00
11:35 PM,45.9,16.2,30,30.02,10.0,WSW,3.5,-,N/A,,Clear,240,2014-05-10 05:35:00
11:55 PM,46.9,16.2,29,30.02,10.0,Calm,Calm,-,N/A,,Clear,0,2014-05-10 05:55:00